iso_date,epoch_date,Year,Hour,Min,DOY,POS_DOY,Lat,Lon,BP,Ts,Ta,has_bp,has_ts,has_ta,BuoyID,Buoy_Type,Buoy_Owner,Logistics,Hemisphere
2011-10-12T00:00:00Z,1318377600,2011,0,0,285.0,285.0,72.6688,-167.708,1012.6,1.5,-999.0,yes,yes,no,300234010136070,unknown,unknown,unknown,North
2011-10-12T01:00:28Z,1318381229,2011,1,0,285.042,285.0,72.6688,-167.708,1012.1,1.7,-999.0,yes,yes,no,300234010136070,unknown,unknown,unknown,North
2011-10-12T01:59:31Z,1318384771,2011,2,0,285.083,285.0,72.6688,-167.708,1011.6,1.3,-999.0,yes,yes,no,300234010136070,unknown,unknown,unknown,North
2011-10-12T03:00:00Z,1318388400,2011,3,0,285.125,285.125,72.7116,-167.746,1011.5,1.4,-999.0,yes,yes,no,300234010136070,unknown,unknown,unknown,North
2011-10-12T04:00:28Z,1318392029,2011,4,0,285.167,285.125,72.7116,-167.746,1011.5,1.3,-999.0,yes,yes,no,300234010136070,unknown,unknown,unknown,North
2011-10-12T04:59:31Z,1318395571,2011,5,0,285.208,285.125,72.7116,-167.746,1011.1,1.4,-999.0,yes,yes,no,300234010136070,unknown,unknown,unknown,North
2011-10-12T06:00:00Z,1318399200,2011,6,0,285.25,285.25,72.7632,-167.7676,1010.8,1.4,-999.0,yes,yes,no,300234010136070,unknown,unknown,unknown,North
2011-10-12T07:00:28Z,1318402829,2011,7,0,285.292,285.25,72.7632,-167.7676,1010.0,2.2,-999.0,yes,yes,no,300234010136070,unknown,unknown,unknown,North
2011-10-12T07:59:31Z,1318406371,2011,8,0,285.333,285.25,72.7632,-167.7676,1010.3,1.3,-999.0,yes,yes,no,300234010136070,unknown,unknown,unknown,North
2011-10-12T09:00:00Z,1318410000,2011,9,0,285.375,285.375,72.8184,-167.8036,1010.6,1.2,-999.0,yes,yes,no,300234010136070,unknown,unknown,unknown,North
2011-10-12T10:00:28Z,1318413629,2011,10,0,285.417,285.375,72.8184,-167.8036,1010.1,1.1,-999.0,yes,yes,no,300234010136070,unknown,unknown,unknown,North
2011-10-12T10:59:31Z,1318417171,2011,11,0,285.458,285.375,72.8184,-167.8036,1009.8,2.2,-999.0,yes,yes,no,300234010136070,unknown,unknown,unknown,North
2011-10-12T12:00:00Z,1318420800,2011,12,0,285.5,285.5,72.8774,-167.8638,1010.5,0.9,-999.0,yes,yes,no,300234010136070,unknown,unknown,unknown,North
2011-10-12T13:00:28Z,1318424429,2011,13,0,285.542,285.5,72.8774,-167.8638,1010.3,1.4,-999.0,yes,yes,no,300234010136070,unknown,unknown,unknown,North
2011-10-12T13:59:31Z,1318427971,2011,14,0,285.583,285.5,72.8774,-167.8638,1008.9,1.2,-999.0,yes,yes,no,300234010136070,unknown,unknown,unknown,North
2011-10-12T15:00:00Z,1318431600,2011,15,0,285.625,285.625,72.9378,-167.9166,1009.8,1.4,-999.0,yes,yes,no,300234010136070,unknown,unknown,unknown,North
2011-10-12T16:00:28Z,1318435229,2011,16,0,285.667,285.625,72.9378,-167.9166,1010.4,1.2,-999.0,yes,yes,no,300234010136070,unknown,unknown,unknown,North
2011-10-12T16:59:31Z,1318438771,2011,17,0,285.708,285.625,72.9378,-167.9166,1009.8,1.3,-999.0,yes,yes,no,300234010136070,unknown,unknown,unknown,North
2011-10-12T18:00:00Z,1318442400,2011,18,0,285.75,285.75,72.9868,-167.9628,1010.1,1.3,-999.0,yes,yes,no,300234010136070,unknown,unknown,unknown,North
2011-10-12T19:00:28Z,1318446029,2011,19,0,285.792,285.75,72.9868,-167.9628,1006.3,1.6,-999.0,yes,yes,no,300234010136070,unknown,unknown,unknown,North
2011-10-12T19:59:31Z,1318449571,2011,20,0,285.833,285.75,72.9868,-167.9628,1008.2,1.4,-999.0,yes,yes,no,300234010136070,unknown,unknown,unknown,North
2011-10-12T21:00:00Z,1318453200,2011,21,0,285.875,285.875,73.03,-168.0462,1008.4,1.4,-999.0,yes,yes,no,300234010136070,unknown,unknown,unknown,North
2011-10-12T22:00:28Z,1318456829,2011,22,0,285.917,285.875,73.03,-168.0462,1007.2,1.1,-999.0,yes,yes,no,300234010136070,unknown,unknown,unknown,North
2011-10-12T22:59:31Z,1318460371,2011,23,0,285.958,285.875,73.03,-168.0462,1008.8,1.1,-999.0,yes,yes,no,300234010136070,unknown,unknown,unknown,North
2011-10-13T00:00:00Z,1318464000,2011,0,0,286.0,286.0,73.0722,-168.1616,1008.7,1.1,-999.0,yes,yes,no,300234010136070,unknown,unknown,unknown,North
2011-10-13T01:00:28Z,1318467629,2011,1,0,286.042,286.0,73.0722,-168.1616,1006.5,1.4,-999.0,yes,yes,no,300234010136070,unknown,unknown,unknown,North
2011-10-13T01:59:31Z,1318471171,2011,2,0,286.083,286.0,73.0722,-168.1616,1008.4,0.9,-999.0,yes,yes,no,300234010136070,unknown,unknown,unknown,North
2011-10-13T03:00:00Z,1318474800,2011,3,0,286.125,286.125,73.1156,-168.2904,1005.9,0.9,-999.0,yes,yes,no,300234010136070,unknown,unknown,unknown,North
2011-10-13T04:00:28Z,1318478429,2011,4,0,286.167,286.125,73.1156,-168.2904,1007.6,0.9,-999.0,yes,yes,no,300234010136070,unknown,unknown,unknown,North
2011-10-13T04:59:31Z,1318481971,2011,5,0,286.208,286.125,73.1156,-168.2904,1006.6,0.8,-999.0,yes,yes,no,300234010136070,unknown,unknown,unknown,North
2011-10-13T06:00:00Z,1318485600,2011,6,0,286.25,286.25,73.1596,-168.4016,1008.1,1.0,-999.0,yes,yes,no,300234010136070,unknown,unknown,unknown,North
2011-10-13T07:00:28Z,1318489229,2011,7,0,286.292,286.25,73.1596,-168.4016,1007.4,1.1,-999.0,yes,yes,no,300234010136070,unknown,unknown,unknown,North
2011-10-13T07:59:31Z,1318492771,2011,8,0,286.333,286.25,73.1596,-168.4016,1007.5,0.5,-999.0,yes,yes,no,300234010136070,unknown,unknown,unknown,North
2011-10-13T09:00:00Z,1318496400,2011,9,0,286.375,286.375,73.1948,-168.5378,1008.2,1.0,-999.0,yes,yes,no,300234010136070,unknown,unknown,unknown,North
2011-10-13T10:00:28Z,1318500029,2011,10,0,286.417,286.375,73.1948,-168.5378,1008.0,0.6,-999.0,yes,yes,no,300234010136070,unknown,unknown,unknown,North
2011-10-13T10:59:31Z,1318503571,2011,11,0,286.458,286.375,73.1948,-168.5378,1008.0,1.1,-999.0,yes,yes,no,300234010136070,unknown,unknown,unknown,North
2011-10-13T12:00:00Z,1318507200,2011,12,0,286.5,286.5,73.2424,-168.7118,1008.4,1.1,-999.0,yes,yes,no,300234010136070,unknown,unknown,unknown,North
2011-10-13T13:00:28Z,1318510829,2011,13,0,286.542,286.5,73.2424,-168.7118,1006.9,1.0,-999.0,yes,yes,no,300234010136070,unknown,unknown,unknown,North
2011-10-13T13:59:31Z,1318514371,2011,14,0,286.583,286.5,73.2424,-168.7118,1007.8,0.6,-999.0,yes,yes,no,300234010136070,unknown,unknown,unknown,North
2011-10-13T15:00:00Z,1318518000,2011,15,0,286.625,286.625,73.2874,-168.8648,1007.4,0.8,-999.0,yes,yes,no,300234010136070,unknown,unknown,unknown,North
2011-10-13T16:00:28Z,1318521629,2011,16,0,286.667,286.625,73.2874,-168.8648,1005.3,0.5,-999.0,yes,yes,no,300234010136070,unknown,unknown,unknown,North
2011-10-13T16:59:31Z,1318525171,2011,17,0,286.708,286.625,73.2874,-168.8648,1008.4,1.1,-999.0,yes,yes,no,300234010136070,unknown,unknown,unknown,North
2011-10-13T18:00:00Z,1318528800,2011,18,0,286.75,286.75,73.3228,-169.022,1006.2,1.0,-999.0,yes,yes,no,300234010136070,unknown,unknown,unknown,North
2011-10-13T19:00:28Z,1318532429,2011,19,0,286.792,286.75,73.3228,-169.022,1008.0,1.4,-999.0,yes,yes,no,300234010136070,unknown,unknown,unknown,North
2011-10-13T19:59:31Z,1318535971,2011,20,0,286.833,286.75,73.3228,-169.022,1008.5,1.2,-999.0,yes,yes,no,300234010136070,unknown,unknown,unknown,North
2011-10-13T21:00:00Z,1318539600,2011,21,0,286.875,286.875,73.3392,-169.2,1006.9,1.2,-999.0,yes,yes,no,300234010136070,unknown,unknown,unknown,North
2011-10-13T22:00:28Z,1318543229,2011,22,0,286.917,286.875,73.3392,-169.2,1003.7,1.3,-999.0,yes,yes,no,300234010136070,unknown,unknown,unknown,North
2011-10-13T22:59:31Z,1318546771,2011,23,0,286.958,286.875,73.3392,-169.2,1005.9,1.8,-999.0,yes,yes,no,300234010136070,unknown,unknown,unknown,North
2011-10-14T00:00:00Z,1318550400,2011,0,0,287.0,287.0,73.3522,-169.3864,1008.4,1.1,-999.0,yes,yes,no,300234010136070,unknown,unknown,unknown,North
2011-10-14T01:00:28Z,1318554029,2011,1,0,287.042,287.0,73.3522,-169.3864,1008.8,1.7,-999.0,yes,yes,no,300234010136070,unknown,unknown,unknown,North
2011-10-14T01:59:31Z,1318557571,2011,2,0,287.083,287.0,73.3522,-169.3864,1008.7,1.1,-999.0,yes,yes,no,300234010136070,unknown,unknown,unknown,North
2011-10-14T03:00:00Z,1318561200,2011,3,0,287.125,287.125,73.3736,-169.5678,1008.5,1.1,-999.0,yes,yes,no,300234010136070,unknown,unknown,unknown,North
2011-10-14T04:00:28Z,1318564829,2011,4,0,287.167,287.125,73.3736,-169.5678,1008.4,1.2,-999.0,yes,yes,no,300234010136070,unknown,unknown,unknown,North
2011-10-14T04:59:31Z,1318568371,2011,5,0,287.208,287.125,73.3736,-169.5678,1008.1,1.2,-999.0,yes,yes,no,300234010136070,unknown,unknown,unknown,North
2011-10-14T06:00:00Z,1318572000,2011,6,0,287.25,287.25,73.3934,-169.7404,1008.4,0.9,-999.0,yes,yes,no,300234010136070,unknown,unknown,unknown,North
2011-10-14T07:00:28Z,1318575629,2011,7,0,287.292,287.25,73.3934,-169.7404,1008.5,0.9,-999.0,yes,yes,no,300234010136070,unknown,unknown,unknown,North
2011-10-14T07:59:31Z,1318579171,2011,8,0,287.333,287.25,73.3934,-169.7404,1008.9,1.1,-999.0,yes,yes,no,300234010136070,unknown,unknown,unknown,North
2011-10-14T09:00:00Z,1318582800,2011,9,0,287.375,287.375,73.4124,-169.9168,1009.3,1.1,-999.0,yes,yes,no,300234010136070,unknown,unknown,unknown,North
2011-10-14T10:00:28Z,1318586429,2011,10,0,287.417,287.375,73.4124,-169.9168,1009.7,1.1,-999.0,yes,yes,no,300234010136070,unknown,unknown,unknown,North
2011-10-14T10:59:31Z,1318589971,2011,11,0,287.458,287.375,73.4124,-169.9168,1009.2,0.8,-999.0,yes,yes,no,300234010136070,unknown,unknown,unknown,North
2011-10-14T12:00:00Z,1318593600,2011,12,0,287.5,287.5,73.4414,-170.1046,1008.8,1.0,-999.0,yes,yes,no,300234010136070,unknown,unknown,unknown,North
2011-10-14T13:00:28Z,1318597229,2011,13,0,287.542,287.5,73.4414,-170.1046,1008.8,1.2,-999.0,yes,yes,no,300234010136070,unknown,unknown,unknown,North
2011-10-14T13:59:31Z,1318600771,2011,14,0,287.583,287.5,73.4414,-170.1046,1009.5,1.0,-999.0,yes,yes,no,300234010136070,unknown,unknown,unknown,North
2011-10-14T15:00:00Z,1318604400,2011,15,0,287.625,287.625,73.4624,-170.2828,1009.0,1.3,-999.0,yes,yes,no,300234010136070,unknown,unknown,unknown,North
2011-10-14T16:00:28Z,1318608029,2011,16,0,287.667,287.625,73.4624,-170.2828,1009.3,1.0,-999.0,yes,yes,no,300234010136070,unknown,unknown,unknown,North
2011-10-14T16:59:31Z,1318611571,2011,17,0,287.708,287.625,73.4624,-170.2828,1008.8,0.8,-999.0,yes,yes,no,300234010136070,unknown,unknown,unknown,North
2011-10-14T18:00:00Z,1318615200,2011,18,0,287.75,287.75,73.4778,-170.4644,1009.0,1.4,-999.0,yes,yes,no,300234010136070,unknown,unknown,unknown,North
2011-10-14T19:00:28Z,1318618829,2011,19,0,287.792,287.75,73.4778,-170.4644,1007.7,1.0,-999.0,yes,yes,no,300234010136070,unknown,unknown,unknown,North
2011-10-14T19:59:31Z,1318622371,2011,20,0,287.833,287.75,73.4778,-170.4644,1008.8,1.7,-999.0,yes,yes,no,300234010136070,unknown,unknown,unknown,North
2011-10-14T21:00:00Z,1318626000,2011,21,0,287.875,287.875,73.4886,-170.6388,1008.5,1.3,-999.0,yes,yes,no,300234010136070,unknown,unknown,unknown,North
2011-10-14T22:00:28Z,1318629629,2011,22,0,287.917,287.875,73.4886,-170.6388,1008.9,1.1,-999.0,yes,yes,no,300234010136070,unknown,unknown,unknown,North
2011-10-14T22:59:31Z,1318633171,2011,23,0,287.958,287.875,73.4886,-170.6388,1008.4,1.8,-999.0,yes,yes,no,300234010136070,unknown,unknown,unknown,North
2011-10-15T00:00:00Z,1318636800,2011,0,0,288.0,288.0,73.507,-170.7936,1009.0,1.7,-999.0,yes,yes,no,300234010136070,unknown,unknown,unknown,North
2011-10-15T01:00:28Z,1318640429,2011,1,0,288.042,288.0,73.507,-170.7936,1008.8,1.8,-999.0,yes,yes,no,300234010136070,unknown,unknown,unknown,North
2011-10-15T01:59:31Z,1318643971,2011,2,0,288.083,288.0,73.507,-170.7936,1008.9,1.5,-999.0,yes,yes,no,300234010136070,unknown,unknown,unknown,North
2011-10-15T03:00:00Z,1318647600,2011,3,0,288.125,288.125,73.5454,-170.8892,1009.2,1.3,-999.0,yes,yes,no,300234010136070,unknown,unknown,unknown,North
2011-10-15T04:00:28Z,1318651229,2011,4,0,288.167,288.125,73.5454,-170.8892,1009.7,1.4,-999.0,yes,yes,no,300234010136070,unknown,unknown,unknown,North
2011-10-15T04:59:31Z,1318654771,2011,5,0,288.208,288.125,73.5454,-170.8892,1009.0,1.3,-999.0,yes,yes,no,300234010136070,unknown,unknown,unknown,North
2011-10-15T06:00:00Z,1318658400,2011,6,0,288.25,288.25,73.5682,-171.0432,1009.0,1.1,-999.0,yes,yes,no,300234010136070,unknown,unknown,unknown,North
2011-10-15T07:00:28Z,1318662029,2011,7,0,288.292,288.25,73.5682,-171.0432,1008.9,1.1,-999.0,yes,yes,no,300234010136070,unknown,unknown,unknown,North
2011-10-15T07:59:31Z,1318665571,2011,8,0,288.333,288.25,73.5682,-171.0432,1008.4,0.8,-999.0,yes,yes,no,300234010136070,unknown,unknown,unknown,North
2011-10-15T09:00:00Z,1318669200,2011,9,0,288.375,288.375,73.5874,-171.303,1008.0,0.7,-999.0,yes,yes,no,300234010136070,unknown,unknown,unknown,North
2011-10-15T10:00:28Z,1318672829,2011,10,0,288.417,288.375,73.5874,-171.303,1007.9,0.9,-999.0,yes,yes,no,300234010136070,unknown,unknown,unknown,North
2011-10-15T10:59:31Z,1318676371,2011,11,0,288.458,288.375,73.5874,-171.303,1008.2,0.9,-999.0,yes,yes,no,300234010136070,unknown,unknown,unknown,North
2011-10-15T12:00:00Z,1318680000,2011,12,0,288.5,288.5,73.612,-171.5294,1007.8,0.6,-999.0,yes,yes,no,300234010136070,unknown,unknown,unknown,North
2011-10-15T13:00:28Z,1318683629,2011,13,0,288.542,288.5,73.612,-171.5294,1006.7,0.4,-999.0,yes,yes,no,300234010136070,unknown,unknown,unknown,North
2011-10-15T13:59:31Z,1318687171,2011,14,0,288.583,288.5,73.612,-171.5294,1006.3,0.4,-999.0,yes,yes,no,300234010136070,unknown,unknown,unknown,North
2011-10-15T15:00:00Z,1318690800,2011,15,0,288.625,288.625,73.6384,-171.687,1005.8,0.1,-999.0,yes,yes,no,300234010136070,unknown,unknown,unknown,North
2011-10-15T16:00:28Z,1318694429,2011,16,0,288.667,288.625,73.6384,-171.687,1005.7,0.0,-999.0,yes,yes,no,300234010136070,unknown,unknown,unknown,North
2011-10-15T16:59:31Z,1318697971,2011,17,0,288.708,288.625,73.6384,-171.687,1005.1,-0.1,-999.0,yes,yes,no,300234010136070,unknown,unknown,unknown,North
2011-10-15T18:00:00Z,1318701600,2011,18,0,288.75,288.75,73.6594,-171.8156,1005.1,-0.1,-999.0,yes,yes,no,300234010136070,unknown,unknown,unknown,North
2011-10-15T19:00:28Z,1318705229,2011,19,0,288.792,288.75,73.6594,-171.8156,1005.7,0.1,-999.0,yes,yes,no,300234010136070,unknown,unknown,unknown,North
2011-10-15T19:59:31Z,1318708771,2011,20,0,288.833,288.75,73.6594,-171.8156,1005.8,0.1,-999.0,yes,yes,no,300234010136070,unknown,unknown,unknown,North
2011-10-15T21:00:00Z,1318712400,2011,21,0,288.875,288.875,73.6638,-171.9546,1005.6,-0.1,-999.0,yes,yes,no,300234010136070,unknown,unknown,unknown,North
2011-10-15T22:00:28Z,1318716029,2011,22,0,288.917,288.875,73.6638,-171.9546,1005.6,0.0,-999.0,yes,yes,no,300234010136070,unknown,unknown,unknown,North
2011-10-15T22:59:31Z,1318719571,2011,23,0,288.958,288.875,73.6638,-171.9546,1005.7,0.2,-999.0,yes,yes,no,300234010136070,unknown,unknown,unknown,North
2011-10-16T00:00:00Z,1318723200,2011,0,0,289.0,289.0,73.678,-172.0462,1005.9,0.2,-999.0,yes,yes,no,300234010136070,unknown,unknown,unknown,North
2011-10-16T01:00:28Z,1318726829,2011,1,0,289.042,289.0,73.678,-172.0462,1005.8,0.1,-999.0,yes,yes,no,300234010136070,unknown,unknown,unknown,North
2011-10-16T01:59:31Z,1318730371,2011,2,0,289.083,289.0,73.678,-172.0462,1005.4,0.1,-999.0,yes,yes,no,300234010136070,unknown,unknown,unknown,North
2011-10-16T03:00:00Z,1318734000,2011,3,0,289.125,289.125,73.691,-172.1348,1005.3,-0.1,-999.0,yes,yes,no,300234010136070,unknown,unknown,unknown,North
2011-10-16T04:00:28Z,1318737629,2011,4,0,289.167,289.125,73.691,-172.1348,1005.2,-0.1,-999.0,yes,yes,no,300234010136070,unknown,unknown,unknown,North
2011-10-16T04:59:31Z,1318741171,2011,5,0,289.208,289.125,73.691,-172.1348,1004.8,1.3,-999.0,yes,yes,no,300234010136070,unknown,unknown,unknown,North
2011-10-16T06:00:00Z,1318744800,2011,6,0,289.25,289.25,73.705,-172.238,1003.8,0.9,-999.0,yes,yes,no,300234010136070,unknown,unknown,unknown,North
2011-10-16T07:00:28Z,1318748429,2011,7,0,289.292,289.25,73.705,-172.238,1004.8,-0.1,-999.0,yes,yes,no,300234010136070,unknown,unknown,unknown,North
2011-10-16T07:59:31Z,1318751971,2011,8,0,289.333,289.25,73.705,-172.238,1004.2,-0.4,-999.0,yes,yes,no,300234010136070,unknown,unknown,unknown,North
2011-10-16T09:00:00Z,1318755600,2011,9,0,289.375,289.375,73.6954,-172.3434,1004.2,-0.3,-999.0,yes,yes,no,300234010136070,unknown,unknown,unknown,North
2011-10-16T10:00:28Z,1318759229,2011,10,0,289.417,289.375,73.6954,-172.3434,1004.5,-0.3,-999.0,yes,yes,no,300234010136070,unknown,unknown,unknown,North
2011-10-16T10:59:31Z,1318762771,2011,11,0,289.458,289.375,73.6954,-172.3434,1004.5,1.1,-999.0,yes,yes,no,300234010136070,unknown,unknown,unknown,North
2011-10-16T12:00:00Z,1318766400,2011,12,0,289.5,289.5,73.6984,-172.4638,1004.8,1.2,-999.0,yes,yes,no,300234010136070,unknown,unknown,unknown,North
2011-10-16T13:00:28Z,1318770029,2011,13,0,289.542,289.5,73.6984,-172.4638,1013.5,1.3,-999.0,yes,yes,no,300234010136070,unknown,unknown,unknown,North
2011-10-16T13:59:31Z,1318773571,2011,14,0,289.583,289.5,73.6984,-172.4638,1005.6,1.3,-999.0,yes,yes,no,300234010136070,unknown,unknown,unknown,North
2011-10-16T15:00:00Z,1318777200,2011,15,0,289.625,289.625,73.7138,-172.5482,1005.6,0.2,-999.0,yes,yes,no,300234010136070,unknown,unknown,unknown,North
2011-10-16T16:00:28Z,1318780829,2011,16,0,289.667,289.625,73.7138,-172.5482,1005.2,0.0,-999.0,yes,yes,no,300234010136070,unknown,unknown,unknown,North
2011-10-16T16:59:31Z,1318784371,2011,17,0,289.708,289.625,73.7138,-172.5482,1005.1,0.0,-999.0,yes,yes,no,300234010136070,unknown,unknown,unknown,North
2011-10-16T18:00:00Z,1318788000,2011,18,0,289.75,289.75,73.71,-172.608,1005.1,0.1,-999.0,yes,yes,no,300234010136070,unknown,unknown,unknown,North
2011-10-16T19:00:28Z,1318791629,2011,19,0,289.792,289.75,73.71,-172.608,1005.5,0.3,-999.0,yes,yes,no,300234010136070,unknown,unknown,unknown,North
2011-10-16T19:59:31Z,1318795171,2011,20,0,289.833,289.75,73.71,-172.608,1004.5,-0.4,-999.0,yes,yes,no,300234010136070,unknown,unknown,unknown,North
2011-10-16T21:00:00Z,1318798800,2011,21,0,289.875,289.875,73.7036,-172.7074,1004.3,-0.5,-999.0,yes,yes,no,300234010136070,unknown,unknown,unknown,North
2011-10-16T22:00:28Z,1318802429,2011,22,0,289.917,289.875,73.7036,-172.7074,1004.2,-0.5,-999.0,yes,yes,no,300234010136070,unknown,unknown,unknown,North
2011-10-16T22:59:31Z,1318805971,2011,23,0,289.958,289.875,73.7036,-172.7074,1004.0,-0.4,-999.0,yes,yes,no,300234010136070,unknown,unknown,unknown,North
2011-10-17T00:00:00Z,1318809600,2011,0,0,290.0,290.0,73.7114,-172.846,1004.0,-0.4,-999.0,yes,yes,no,300234010136070,unknown,unknown,unknown,North
2011-10-17T01:00:28Z,1318813229,2011,1,0,290.042,290.0,73.7114,-172.846,1004.0,-0.4,-999.0,yes,yes,no,300234010136070,unknown,unknown,unknown,North
2011-10-17T01:59:31Z,1318816771,2011,2,0,290.083,290.0,73.7114,-172.846,1005.1,-0.2,-999.0,yes,yes,no,300234010136070,unknown,unknown,unknown,North
2011-10-17T03:00:00Z,1318820400,2011,3,0,290.125,290.125,73.7276,-172.9466,1003.9,-0.1,-999.0,yes,yes,no,300234010136070,unknown,unknown,unknown,North
2011-10-17T04:00:28Z,1318824029,2011,4,0,290.167,290.125,73.7276,-172.9466,1003.9,-0.1,-999.0,yes,yes,no,300234010136070,unknown,unknown,unknown,North
2011-10-17T04:59:31Z,1318827571,2011,5,0,290.208,290.125,73.7276,-172.9466,1003.8,-0.1,-999.0,yes,yes,no,300234010136070,unknown,unknown,unknown,North
2011-10-17T06:00:00Z,1318831200,2011,6,0,290.25,290.25,73.7234,-173.086,1003.9,-0.3,-999.0,yes,yes,no,300234010136070,unknown,unknown,unknown,North
2011-10-17T07:00:28Z,1318834829,2011,7,0,290.292,290.25,73.7234,-173.086,1004.0,-0.3,-999.0,yes,yes,no,300234010136070,unknown,unknown,unknown,North
2011-10-17T07:59:31Z,1318838371,2011,8,0,290.333,290.25,73.7234,-173.086,1003.9,-0.1,-999.0,yes,yes,no,300234010136070,unknown,unknown,unknown,North
2011-10-17T09:00:00Z,1318842000,2011,9,0,290.375,290.375,73.7148,-173.2554,1003.0,-0.6,-999.0,yes,yes,no,300234010136070,unknown,unknown,unknown,North
2011-10-17T10:00:28Z,1318845629,2011,10,0,290.417,290.375,73.7148,-173.2554,1003.1,-0.5,-999.0,yes,yes,no,300234010136070,unknown,unknown,unknown,North
2011-10-17T10:59:31Z,1318849171,2011,11,0,290.458,290.375,73.7148,-173.2554,1003.0,-0.2,-999.0,yes,yes,no,300234010136070,unknown,unknown,unknown,North
2011-10-17T12:00:00Z,1318852800,2011,12,0,290.5,290.5,73.7064,-173.3856,1003.1,-0.3,-999.0,yes,yes,no,300234010136070,unknown,unknown,unknown,North
2011-10-17T13:00:28Z,1318856429,2011,13,0,290.542,290.5,73.7064,-173.3856,1002.9,-0.2,-999.0,yes,yes,no,300234010136070,unknown,unknown,unknown,North
2011-10-17T13:59:31Z,1318859971,2011,14,0,290.583,290.5,73.7064,-173.3856,1003.3,-0.1,-999.0,yes,yes,no,300234010136070,unknown,unknown,unknown,North
2011-10-17T15:00:00Z,1318863600,2011,15,0,290.625,290.625,73.7012,-173.4702,1003.6,-0.2,-999.0,yes,yes,no,300234010136070,unknown,unknown,unknown,North
2011-10-17T16:00:28Z,1318867229,2011,16,0,290.667,290.625,73.7012,-173.4702,1003.4,0.0,-999.0,yes,yes,no,300234010136070,unknown,unknown,unknown,North
2011-10-17T16:59:31Z,1318870771,2011,17,0,290.708,290.625,73.7012,-173.4702,1002.9,-0.4,-999.0,yes,yes,no,300234010136070,unknown,unknown,unknown,North
2011-10-17T18:00:00Z,1318874400,2011,18,0,290.75,290.75,73.6876,-173.6094,1002.6,0.0,-999.0,yes,yes,no,300234010136070,unknown,unknown,unknown,North
2011-10-17T19:00:28Z,1318878029,2011,19,0,290.792,290.75,73.6876,-173.6094,1002.8,0.2,-999.0,yes,yes,no,300234010136070,unknown,unknown,unknown,North
2011-10-17T19:59:31Z,1318881571,2011,20,0,290.833,290.75,73.6876,-173.6094,1003.8,0.4,-999.0,yes,yes,no,300234010136070,unknown,unknown,unknown,North
2011-10-17T21:00:00Z,1318885200,2011,21,0,290.875,290.875,73.6852,-173.7604,1003.3,0.3,-999.0,yes,yes,no,300234010136070,unknown,unknown,unknown,North
2011-10-17T22:00:28Z,1318888829,2011,22,0,290.917,290.875,73.6852,-173.7604,1003.7,0.4,-999.0,yes,yes,no,300234010136070,unknown,unknown,unknown,North
2011-10-17T22:59:31Z,1318892371,2011,23,0,290.958,290.875,73.6852,-173.7604,1004.9,0.7,-999.0,yes,yes,no,300234010136070,unknown,unknown,unknown,North
2011-10-18T00:00:00Z,1318896000,2011,0,0,291.0,291.0,73.6778,-173.9142,1004.7,0.2,-999.0,yes,yes,no,300234010136070,unknown,unknown,unknown,North
2011-10-18T01:00:28Z,1318899629,2011,1,0,291.042,291.0,73.6778,-173.9142,1005.1,0.2,-999.0,yes,yes,no,300234010136070,unknown,unknown,unknown,North
2011-10-18T01:59:31Z,1318903171,2011,2,0,291.083,291.0,73.6778,-173.9142,1004.6,0.2,-999.0,yes,yes,no,300234010136070,unknown,unknown,unknown,North
2011-10-18T03:00:00Z,1318906800,2011,3,0,291.125,291.125,73.6726,-174.0594,1003.5,0.2,-999.0,yes,yes,no,300234010136070,unknown,unknown,unknown,North
2011-10-18T04:00:28Z,1318910429,2011,4,0,291.167,291.125,73.6726,-174.0594,1003.4,0.2,-999.0,yes,yes,no,300234010136070,unknown,unknown,unknown,North
2011-10-18T04:59:31Z,1318913971,2011,5,0,291.208,291.125,73.6726,-174.0594,1003.6,0.3,-999.0,yes,yes,no,300234010136070,unknown,unknown,unknown,North
2011-10-18T06:00:00Z,1318917600,2011,6,0,291.25,291.25,73.6626,-174.2124,1005.3,0.7,-999.0,yes,yes,no,300234010136070,unknown,unknown,unknown,North
2011-10-18T07:00:28Z,1318921229,2011,7,0,291.292,291.25,73.6626,-174.2124,1005.7,0.4,-999.0,yes,yes,no,300234010136070,unknown,unknown,unknown,North
2011-10-18T07:59:31Z,1318924771,2011,8,0,291.333,291.25,73.6626,-174.2124,1006.2,1.0,-999.0,yes,yes,no,300234010136070,unknown,unknown,unknown,North
2011-10-18T09:00:00Z,1318928400,2011,9,0,291.375,291.375,73.6654,-174.3422,1007.0,1.2,-999.0,yes,yes,no,300234010136070,unknown,unknown,unknown,North
2011-10-18T10:00:28Z,1318932029,2011,10,0,291.417,291.375,73.6654,-174.3422,1007.5,1.2,-999.0,yes,yes,no,300234010136070,unknown,unknown,unknown,North
2011-10-18T10:59:31Z,1318935571,2011,11,0,291.458,291.375,73.6654,-174.3422,1007.5,1.3,-999.0,yes,yes,no,300234010136070,unknown,unknown,unknown,North
2011-10-18T12:00:00Z,1318939200,2011,12,0,291.5,291.5,73.6838,-174.5368,1007.7,1.4,-999.0,yes,yes,no,300234010136070,unknown,unknown,unknown,North
2011-10-18T13:00:28Z,1318942829,2011,13,0,291.542,291.5,73.6838,-174.5368,1007.8,1.3,-999.0,yes,yes,no,300234010136070,unknown,unknown,unknown,North
2011-10-18T13:59:31Z,1318946371,2011,14,0,291.583,291.5,73.6838,-174.5368,1007.9,1.3,-999.0,yes,yes,no,300234010136070,unknown,unknown,unknown,North